BREEZE-M DEB, 38609

Orbit data source: Space-Track

BREEZE-M DEB, 38609 is space debris in HEO originally from a launch on Fri, 14 Mar 2008 UTC launched from the Tyuratam Missile And Space Complex (TTMTR). Debris objects in space refer to the collection of defunct objects orbiting the Earth. Examples of debris include non-operational satellites, rocket bodies, and fragments generated from explosions, collisions, or faulty payload assembly.

Loading next visibility...
Identifier
38609, 2008-011BG
Orbit
HEO
Country
Flag of CISCIS
Related business
Manufacturer
Unknown
Mission
Spacecraft
Bus & Motor
Unknown
Mass
Unknown
Launch date (UTC)
2008-03-14 (18 years ago)
Launch vehicle
Unknown
Launch site
Tyuratam Missile And Space Complex (TTMTR)
Object type
Payload
Rocket body
Debris
Shape & HBR
Unknown shape, 0.3 m
Radar Cross Section
Medium (>0.1 m² and <1 m²)

Expand to show TLE details & history
Last TLE update: 1 week ago

TLE from 1 week ago
0 BREEZE-M DEB
1 38609U 08011BG  26164.16148187 -.00000124  00000-0 -51201-4 0  9993
2 38609  48.2644  31.5705 6059967 235.8087  51.5384  3.61664732184739
Epoch: 2026-06-13T03:52Z
TLE epoch observation values (Epoch: 2026-06-13T03:52:32.033Z)
Latitude
-0.00002°
Longitude
71.98514°
Altitude
10,831.937 km
Speed
4.908 km/s
True Right ascension
02h 06m 23s
True Declination
0° 00' 00"
Sunlit
Object was in daylight at epoch
Visualization orbit readout
Latitude
Unknown
Longitude
Unknown
Altitude
Unknown
Speed
Unknown
Apparent Right ascension
Unknown
Apparent Declination
Unknown
Sunlit
N/A
Visualization observer readout
Local Sidereal Time
01:45:30
Azimuth
Unknown
Elevation
Unknown
Doppler factor
Unknown
Orbital elements
Apogee altitude
22,415.429 km
Perigee altitude
685.863 km
Semi-major axis
17,928.783 km
Eccentricity
0.606
Inclination
48.2644°
RAAN
31.5705°
Arg. of periapsis
235.8087°
True anomaly
124.20084°
Mean anomaly
51.5384°
Eccentric anomaly
86.18241°
Mean motion
0.9041 °/min
Orbital period
398.19 mins
BSTAR
-0.000051201
Loading maneuver chart data...
Computing Atmospheric mass density...
Loading historical data...
Loading historical data...
Loading historical data...
Loading historical data...
Loading historical data...
Loading historical data...
Loading historical data...

Documentation

Showing up to 5 results
|